BVX177 ENBR-ENZV

Flight info

Callsign BVX177
Flight time 0h 41m
Altitude 17000
Route BEGOD
Aircraft A319/M-SDE3FGHIRWY/LB1

Departure

Time 2026-04-23 17:51
Airport Bergen Airport, Flesland (ENBR)

Arrival

Time 2026-04-23 18:32
Airport Stavanger Airport, Sola (ENZV)
Time Latitude Longitude Altitude Speed Heading
2026-04-23 17:29 60.28621 5.22951 173 ft 0 kts 80°
2026-04-23 17:44 60.28615 5.22879 173 ft 4 kts 80°
2026-04-23 17:45 60.28614 5.22867 173 ft 0 kts 80°
2026-04-23 17:48 60.28618 5.22869 173 ft 1 kts 35°
2026-04-23 17:48 60.28644 5.22836 173 ft 10 kts 318°
2026-04-23 17:48 60.28671 5.22622 167 ft 22 kts 261°
2026-04-23 17:49 60.28682 5.22393 165 ft 18 kts 272°
2026-04-23 17:49 60.28671 5.22257 163 ft 5 kts 260°
2026-04-23 17:49 60.28664 5.22182 162 ft 9 kts 260°
2026-04-23 17:49 60.28661 5.22049 162 ft 4 kts 308°
2026-04-23 17:50 60.28679 5.22040 162 ft 0 kts 349°
2026-04-23 17:50 60.28837 5.21986 162 ft 55 kts 351°
2026-04-23 17:50 60.29439 5.21784 155 ft 119 kts 350°
2026-04-23 17:51 60.30301 5.21495 640 ft 129 kts 347°
2026-04-23 17:51 60.31212 5.21184 1301 ft 136 kts 349°
2026-04-23 17:51 60.33295 5.20478 2391 ft 173 kts 351°
2026-04-23 17:52 60.34562 5.20051 2834 ft 196 kts 352°
2026-04-23 17:52 60.37578 5.19047 4254 ft 236 kts 351°
2026-04-23 17:52 60.39220 5.18491 5318 ft 242 kts 349°
2026-04-23 17:53 60.42556 5.17350 5960 ft 243 kts 349°
2026-04-23 17:53 60.44229 5.16786 6005 ft 243 kts 349°
2026-04-23 17:53 60.45894 5.16214 6006 ft 243 kts 348°
2026-04-23 17:54 60.47424 5.14839 6009 ft 244 kts 323°
2026-04-23 17:54 60.48466 5.12125 6007 ft 250 kts 297°
2026-04-23 17:54 60.48396 5.04838 7488 ft 269 kts 264°
2026-04-23 17:55 60.46188 4.98534 9450 ft 300 kts 212°
2026-04-23 17:55 60.44125 4.97527 10422 ft 315 kts 182°
2026-04-23 17:55 60.41861 4.97861 10885 ft 338 kts 177°
2026-04-23 17:56 60.39440 4.98374 11167 ft 362 kts 176°
2026-04-23 17:56 60.34185 4.99596 12110 ft 389 kts 176°
2026-04-23 17:56 60.31479 5.00206 12854 ft 393 kts 176°
2026-04-23 17:57 60.28743 5.00795 13598 ft 397 kts 177°
2026-04-23 17:57 60.25996 5.01657 14328 ft 402 kts 171°
2026-04-23 17:57 60.20464 5.03831 15676 ft 407 kts 172°
2026-04-23 17:58 60.17675 5.04928 16371 ft 410 kts 172°
2026-04-23 17:58 60.14862 5.05824 17036 ft 410 kts 176°
2026-04-23 17:58 60.12017 5.06436 17323 ft 411 kts 177°
2026-04-23 17:58 60.09151 5.07047 17401 ft 422 kts 177°
2026-04-23 17:59 60.06169 5.07673 17410 ft 439 kts 176°
2026-04-23 17:59 60.03107 5.08314 17400 ft 446 kts 176°
2026-04-23 17:59 60.00014 5.08968 17407 ft 447 kts 176°
2026-04-23 17:59 59.96919 5.09627 17398 ft 448 kts 176°
2026-04-23 18:00 59.93818 5.10293 17402 ft 448 kts 176°
2026-04-23 18:00 59.90721 5.10957 17410 ft 448 kts 176°
2026-04-23 18:00 59.87618 5.11616 17402 ft 448 kts 176°
2026-04-23 18:00 59.84518 5.12265 17411 ft 448 kts 177°
2026-04-23 18:01 59.81415 5.12905 17408 ft 448 kts 177°
2026-04-23 18:01 59.78316 5.13539 17410 ft 448 kts 177°
2026-04-23 18:01 59.75255 5.14106 17404 ft 448 kts 178°
2026-04-23 18:01 59.72150 5.14622 17408 ft 448 kts 178°
2026-04-23 18:02 59.69041 5.15105 17407 ft 448 kts 178°
2026-04-23 18:02 59.65935 5.15579 17402 ft 448 kts 178°
2026-04-23 18:02 59.62829 5.16059 17401 ft 448 kts 178°
2026-04-23 18:02 59.59720 5.16552 17402 ft 448 kts 178°
2026-04-23 18:03 59.56615 5.17054 17385 ft 448 kts 178°
2026-04-23 18:03 59.53509 5.17566 17382 ft 448 kts 178°
2026-04-23 18:03 59.50400 5.18084 17379 ft 448 kts 178°
2026-04-23 18:03 59.47289 5.18602 17376 ft 448 kts 178°
2026-04-23 18:04 59.44181 5.19123 17369 ft 448 kts 178°
2026-04-23 18:04 59.41071 5.19643 17371 ft 448 kts 178°
2026-04-23 18:04 59.37962 5.20052 17371 ft 448 kts 180°
2026-04-23 18:04 59.34851 5.20240 17378 ft 447 kts 182°
2026-04-23 18:05 59.31744 5.20279 17388 ft 446 kts 183°
2026-04-23 18:05 59.28650 5.20250 17380 ft 437 kts 183°
2026-04-23 18:05 59.25686 5.20229 17380 ft 415 kts 183°
2026-04-23 18:05 59.22844 5.20242 17270 ft 404 kts 182°
2026-04-23 18:06 59.20022 5.20282 16201 ft 411 kts 182°
2026-04-23 18:06 59.17117 5.20356 15036 ft 423 kts 181°
2026-04-23 18:06 59.14241 5.21324 14451 ft 421 kts 165°
2026-04-23 18:06 59.11478 5.23148 13666 ft 418 kts 163°
2026-04-23 18:07 59.08737 5.24993 12859 ft 414 kts 162°
2026-04-23 18:07 59.06022 5.26798 12042 ft 411 kts 162°
2026-04-23 18:07 59.03322 5.28566 11236 ft 408 kts 162°
2026-04-23 18:07 59.00636 5.30296 10613 ft 401 kts 163°
2026-04-23 18:08 58.98905 5.31401 10238 ft 395 kts 163°
2026-04-23 18:08 58.95547 5.33529 9957 ft 361 kts 163°
2026-04-23 18:08 58.93240 5.34986 9820 ft 336 kts 163°
2026-04-23 18:08 58.91072 5.36356 9536 ft 322 kts 163°
2026-04-23 18:09 58.88962 5.37686 9022 ft 317 kts 163°
2026-04-23 18:09 58.86875 5.38988 8495 ft 314 kts 163°
2026-04-23 18:09 58.84803 5.40267 7957 ft 311 kts 163°
2026-04-23 18:09 58.82747 5.41524 7432 ft 309 kts 163°
2026-04-23 18:10 58.80697 5.42766 6966 ft 308 kts 163°
2026-04-23 18:10 58.78658 5.43992 6526 ft 306 kts 163°
2026-04-23 18:10 58.76654 5.45186 6076 ft 304 kts 163°
2026-04-23 18:10 58.74633 5.46381 5629 ft 303 kts 163°
2026-04-23 18:11 58.72622 5.47558 5194 ft 301 kts 163°
2026-04-23 18:11 58.70620 5.48719 4745 ft 299 kts 163°
2026-04-23 18:11 58.68645 5.49858 4462 ft 289 kts 163°
2026-04-23 18:11 58.66771 5.50939 4325 ft 273 kts 163°
2026-04-23 18:12 58.64991 5.52047 3984 ft 266 kts 154°
2026-04-23 18:12 58.63592 5.54209 3638 ft 255 kts 119°
2026-04-23 18:12 58.62981 5.57229 3357 ft 237 kts 89°
2026-04-23 18:12 58.62956 5.60311 3089 ft 222 kts 67°
2026-04-23 18:13 58.63648 5.62776 3011 ft 204 kts 38°
2026-04-23 18:13 58.64810 5.64167 3016 ft 195 kts 13°
2026-04-23 18:13 58.66146 5.64434 3013 ft 194 kts 357°
2026-04-23 18:13 58.67497 5.64387 3012 ft 194 kts 358°
2026-04-23 18:14 58.68806 5.64347 3009 ft 181 kts 358°
2026-04-23 18:14 58.70034 5.64311 3009 ft 175 kts 358°
2026-04-23 18:14 58.71250 5.64275 3014 ft 175 kts 359°
2026-04-23 18:14 58.72466 5.64239 2942 ft 175 kts 359°
2026-04-23 18:15 58.73657 5.64204 2765 ft 166 kts 358°
2026-04-23 18:15 58.74768 5.64171 2559 ft 159 kts 358°
2026-04-23 18:15 58.75858 5.64138 2350 ft 155 kts 358°
2026-04-23 18:15 58.76925 5.64106 2144 ft 152 kts 358°
2026-04-23 18:16 58.77982 5.64074 1937 ft 149 kts 358°
2026-04-23 18:16 58.78988 5.64045 1715 ft 140 kts 358°
2026-04-23 18:16 58.79922 5.64017 1514 ft 129 kts 358°
2026-04-23 18:17 58.81632 5.63966 1190 ft 120 kts 356°
2026-04-23 18:17 58.82460 5.63940 1010 ft 119 kts 356°
2026-04-23 18:17 58.83289 5.63915 832 ft 119 kts 355°
2026-04-23 18:17 58.84112 5.63891 675 ft 118 kts 355°
2026-04-23 18:18 58.84930 5.63866 506 ft 118 kts 354°
2026-04-23 18:18 58.85749 5.63841 341 ft 117 kts 354°
2026-04-23 18:18 58.86589 5.63816 314 ft 133 kts 354°
2026-04-23 18:18 58.87525 5.63789 1227 ft 133 kts 356°
2026-04-23 18:19 58.88448 5.63717 1957 ft 139 kts 356°
2026-04-23 18:19 58.89489 5.63556 2394 ft 162 kts 355°
2026-04-23 18:19 58.90661 5.63342 3020 ft 174 kts 355°
2026-04-23 18:19 58.91879 5.63042 3779 ft 179 kts 346°
2026-04-23 18:20 58.92911 5.61586 4519 ft 200 kts 310°
2026-04-23 18:20 58.93393 5.58864 4947 ft 227 kts 282°
2026-04-23 18:20 58.93359 5.55787 5002 ft 229 kts 274°
2026-04-23 18:20 58.93238 5.52709 5010 ft 229 kts 273°
2026-04-23 18:21 58.93107 5.49643 5008 ft 229 kts 273°
2026-04-23 18:21 58.92972 5.46569 5007 ft 229 kts 273°
2026-04-23 18:21 58.92677 5.43504 5017 ft 239 kts 253°
2026-04-23 18:21 58.91611 5.40941 5007 ft 255 kts 220°
2026-04-23 18:22 58.89942 5.39678 5009 ft 264 kts 190°
2026-04-23 18:22 58.88102 5.39423 5011 ft 266 kts 183°
2026-04-23 18:22 58.86252 5.39426 4952 ft 266 kts 172°
2026-04-23 18:22 58.84454 5.40216 4635 ft 265 kts 163°
2026-04-23 18:23 58.83278 5.40846 4444 ft 264 kts 163°
2026-04-23 18:23 58.79168 5.43108 3761 ft 261 kts 163°
2026-04-23 18:24 58.75681 5.45005 3218 ft 259 kts 163°
2026-04-23 18:24 58.73953 5.45945 3045 ft 258 kts 162°
2026-04-23 18:24 58.72227 5.46867 3015 ft 257 kts 163°
2026-04-23 18:25 58.68771 5.48700 3016 ft 258 kts 163°
2026-04-23 18:25 58.67049 5.49700 3010 ft 258 kts 154°
2026-04-23 18:25 58.65667 5.51741 3020 ft 247 kts 120°
2026-04-23 18:25 58.65052 5.54672 3018 ft 232 kts 89°
2026-04-23 18:26 58.64933 5.57743 3018 ft 230 kts 83°
2026-04-23 18:26 58.65195 5.60605 3017 ft 214 kts 57°
2026-04-23 18:26 58.66047 5.62822 3012 ft 203 kts 33°
2026-04-23 18:26 58.67255 5.64094 3014 ft 196 kts 13°
2026-04-23 18:27 58.68597 5.64358 3011 ft 195 kts 358°
2026-04-23 18:27 58.69949 5.64313 3006 ft 189 kts 358°
2026-04-23 18:27 58.71207 5.64276 3004 ft 173 kts 358°
2026-04-23 18:27 58.72365 5.64241 2951 ft 162 kts 358°
2026-04-23 18:28 58.73478 5.64208 2808 ft 158 kts 358°
2026-04-23 18:28 58.74203 5.64187 2661 ft 156 kts 358°
2026-04-23 18:28 58.75280 5.64155 2465 ft 154 kts 358°
2026-04-23 18:28 58.76348 5.64123 2255 ft 153 kts 358°
2026-04-23 18:29 58.77391 5.64092 2045 ft 145 kts 358°
2026-04-23 18:29 58.78369 5.64063 1843 ft 137 kts 359°
2026-04-23 18:29 58.79309 5.64035 1656 ft 134 kts 358°
2026-04-23 18:29 58.80236 5.64007 1472 ft 133 kts 357°
2026-04-23 18:30 58.81149 5.63980 1280 ft 126 kts 356°
2026-04-23 18:30 58.82004 5.63955 1114 ft 121 kts 356°
2026-04-23 18:30 58.82838 5.63929 924 ft 119 kts 355°
2026-04-23 18:30 58.83659 5.63902 776 ft 117 kts 355°
2026-04-23 18:31 58.84476 5.63872 621 ft 118 kts 354°
2026-04-23 18:31 58.85293 5.63849 425 ft 117 kts 354°
2026-04-23 18:31 58.86101 5.63828 264 ft 116 kts 354°
2026-04-23 18:31 58.86909 5.63807 106 ft 116 kts 354°
2026-04-23 18:32 58.87679 5.63782 33 ft 100 kts 359°
2026-04-23 18:32 58.88199 5.63768 31 ft 50 kts 359°
2026-04-23 18:32 58.88551 5.63758 29 ft 52 kts 359°
2026-04-23 18:32 58.88704 5.63694 28 ft 16 kts 292°
2026-04-23 18:33 58.88708 5.63558 30 ft 0 kts 269°
2026-04-23 18:33 58.88708 5.63545 31 ft 4 kts 268°
2026-04-23 18:33 58.88693 5.63437 31 ft 12 kts 221°
2026-04-23 18:33 58.88599 5.63420 31 ft 16 kts 179°
2026-04-23 18:34 58.88500 5.63424 31 ft 15 kts 178°
2026-04-23 18:34 58.88438 5.63294 29 ft 13 kts 253°
2026-04-23 18:34 58.88414 5.63128 26 ft 12 kts 245°
2026-04-23 18:34 58.88370 5.63035 28 ft 5 kts 224°
2026-04-23 18:35 58.88366 5.63027 25 ft 1 kts 224°
2026-04-23 18:35 58.88360 5.63017 25 ft 1 kts 223°
2026-04-23 18:35 58.88353 5.63004 26 ft 0 kts 223°